This is the latest recevied weather packets stored in our database for station/object KI8L. If no packets are shown the sender has not sent any weather packets the latest 10 day(s).
| Time | Temp. | Humidity | Pressure | Rain* | Wind** | Luminosity | Snow |
|---|---|---|---|---|---|---|---|
| 1778038495 | 9.44° C | 99% | 1011 hPa | 3.05 mm | - | 0 W/m² | - |
| 1778038191 | 9.44° C | 99% | 1011.1 hPa | 1.27 mm | - | 0 W/m² | - |
| 1778037889 | 9.44° C | 99% | 1011.1 hPa | 1.78 mm | - | 0 W/m² | - |
| 1778037585 | 9.44° C | 99% | 1011.2 hPa | 3.05 mm | - | 0 W/m² | - |
| 1778037283 | 9.44° C | 99% | 1011.3 hPa | 1.27 mm | - | 0 W/m² | - |
| 1778036980 | 9.44° C | 99% | 1011.5 hPa | 1.78 mm | - | 0 W/m² | - |
| 1778036678 | 9.44° C | 99% | 1011.4 hPa | 3.56 mm | - | 0 W/m² | - |
| 1778036374 | 9.44° C | 99% | 1011.4 hPa | 1.78 mm | - | 0 W/m² | - |
| 1778036072 | 9.44° C | 99% | 1011.3 hPa | 3.05 mm | - | 0 W/m² | - |
| 1778035768 | 9.44° C | 99% | 1011.4 hPa | 1.27 mm | - | 0 W/m² | - |
| 1778035465 | 9.44° C | 99% | 1011.4 hPa | 1.78 mm | - | 0 W/m² | - |
| 1778035161 | 9.44° C | 99% | 1011.2 hPa | 1.78 mm | - | 0 W/m² | - |
| 1778034858 | 9.44° C | 99% | 1011.2 hPa | 1.27 mm | - | 0 W/m² | - |
| 1778034554 | 9.44° C | 99% | 1011.4 hPa | 3.05 mm | - | 0 W/m² | - |
| 1778034252 | 9.44° C | 99% | 1011.7 hPa | 4.83 mm | - | 0 W/m² | - |
| 1778033950 | 10° C | 99% | 1011.3 hPa | 4.32 mm | - | 0 W/m² | - |
| 1778033647 | 10° C | 99% | 1011.4 hPa | 3.05 mm | - | 0 W/m² | - |
| 1778033344 | 10° C | 99% | 1011.4 hPa | 4.83 mm | - | 0 W/m² | - |
| 1778033042 | 10° C | 99% | 1011.5 hPa | 4.32 mm | - | 0 W/m² | - |
| 1778032739 | 10° C | 99% | 1011.1 hPa | 3.05 mm | - | 0 W/m² | - |
| 1778032436 | 10° C | 99% | 1011.1 hPa | 3.56 mm | - | 0 W/m² | - |
| 1778032133 | 10° C | 99% | 1010.7 hPa | 3.05 mm | - | 0 W/m² | - |
| 1778031830 | 10° C | 99% | 1010.9 hPa | 3.05 mm | - | 0 W/m² | - |
| 1778031527 | 10° C | 99% | 1010.7 hPa | 3.05 mm | - | 0 W/m² | - |
| 1778031224 | 10° C | 99% | 1010.5 hPa | 4.32 mm | - | 0 W/m² | - |
* Rain latest hour (hover to see other rain measurements)
** Current wind speed in m/s (hover to see current wind gust speed)